#timestamp,LO_Frequency,Hit,StdDev 
1511931615.6,286047003.2,N
1511931635.4,286047000.3,N
1511931655.3,286047002.1,N
1511931675.1,286047003.3,N
1511931695.8,286047004.3,N
1511931715.7,286047003.4,N
1511931735.5,286047003.2,N
1511931755.3,286047005.1,N
1511931775.2,286047003.5,N
1511931795.9,286047003.4,N
1511931815.7,286047003.1,N
1511931835.6,286047002.9,N
1511931855.4,286047005.1,N
1511931875.2,286047003.2,N
1511931895.0,286047004.2,N
1511931896.0,286047004.2,N
1511931915.8,286047004.1,N
1511931935.6,286047003.6,N
1511931955.4,286047005.5,N
1511931975.3,286047001.3,N
1511931995.1,286047003.3,N
1511932015.8,286047004.6,Y
1511932035.7,286047003.6,P
1511932055.5,286046999.9,N
1511932075.3,286046996.7,N
1511932095.2,286046994.9,N
1511932115.9,286046992.3,N
1511932135.7,286046991.0,N
1511932155.6,286046990.9,N
1511932175.4,286046993.9,N
1511932195.2,286046992.1,N
1511932215.1,286046989.0,N
1511932216.0,286046989.0,N
1511932235.8,286046989.7,N
1511932255.6,286046988.0,N
1511932275.5,286046984.4,Y
1511932295.3,286046993.1,P
1511932315.1,286046989.2,P
1511932335.9,286046987.4,P
1511932355.7,286046988.5,Y
1511932375.5,286046999.0,P
1511932395.4,286047000.5,N
1511932415.2,286047000.8,N
1511932435.0,286046999.0,N
1511932435.9,286046999.0,N
1511932455.8,286046998.9,N
1511932475.6,286046997.1,N
1511932495.4,286046995.8,N
1511932515.2,286046998.0,N
1511932535.1,286046995.5,N
1511932536.0,286046995.5,N
1511932555.8,286046996.0,N
1511932575.6,286046995.3,N
1511932595.5,286046996.9,N
1511932615.3,286047001.1,N
1511932635.1,286047002.5,N
1511932655.9,286047000.5,N
1511932675.7,286046999.1,N
1511932695.5,286046998.0,N
1511932715.4,286046997.5,N
1511932735.2,286046995.6,N
1511932755.0,286046997.3,N
1511932755.9,286046997.3,N
1511932775.8,286046996.7,N
1511932795.6,286046993.9,N
1511932815.4,286046991.4,Y
1511932835.3,286046996.4,P
1511932855.1,286046991.9,P
1511932856.0,286046991.9,P
1511932875.8,286046994.9,N
1511932895.7,286046996.9,N
1511932915.5,286047001.0,N
1511932935.3,286047000.4,N
1511932955.1,286046996.8,N
1511932975.9,286046998.7,N
1511932995.7,286047001.8,N
1511933015.5,286047001.0,N
1511933035.4,286047002.7,N
1511933055.2,286047002.1,N
1511933075.0,286046999.6,N
1511933075.9,286046999.6,N
1511933095.8,286046997.1,N
1511933115.6,286046996.7,N
1511933135.4,286046997.4,N
1511933155.3,286047001.1,N
1511933175.1,286046996.3,N
1511933176.0,286046996.3,N
1511933195.8,286046998.4,N
1511933215.7,286047001.8,N
1511933235.5,286047001.6,N
1511933255.3,286047002.5,N
1511933275.1,286047002.7,N
1511933295.9,286047000.7,N
1511933315.7,286047002.6,N
1511933335.5,286047002.4,N
1511933355.4,286046998.5,N
1511933375.2,286047000.9,N
1511933395.0,286047000.5,N
1511933395.9,286047000.5,N
1511933415.8,286047002.2,N
1511933435.6,286047004.1,N
1511933455.4,286047002.4,N
1511933475.3,286046999.7,N
1511933495.1,286046999.8,N
1511933496.0,286046999.8,N
1511933515.8,286047004.0,N
1511933535.7,286047001.3,N
1511933555.5,286047006.5,N
1511933575.3,286047007.1,N
1511933595.2,286047007.1,N
1511933615.9,286047012.2,Y
1511933635.7,286047011.4,P
1511933655.6,286047011.5,N
1511933675.4,286047014.2,N
1511933695.2,286047017.5,Y
1511933715.1,286047006.1,P
1511933716.0,286047006.1,P
1511933735.8,286047006.9,P
1511933755.6,286047010.8,Y
1511933775.5,286047001.9,P
1511933795.3,286046999.8,N
1511933815.1,286047000.4,N
1511933835.9,286047003.9,N
1511933855.7,286047009.0,Y
1511933875.5,286047004.1,P
1511933895.4,286047002.0,N
1511933915.2,286047001.3,N
1511933935.0,286047000.0,N
1511933935.9,286047000.0,N
1511933955.7,286047001.1,N
1511933975.6,286047001.1,N
1511933995.4,286047001.2,N
1511934015.2,286046996.6,N
1511934035.1,286046998.3,N
1511934036.0,286046998.3,N
1511934055.8,286047001.9,N
1511934075.6,286047002.5,N
1511934095.5,286047002.5,N
1511934115.3,286047001.9,N
1511934135.1,286047002.6,N
1511934155.9,286047002.0,N
1511934175.7,286047002.3,N
1511934195.5,286047002.9,N
1511934215.4,286047003.9,N
1511934235.2,286047004.4,N
1511934255.0,286047001.2,N
1511934255.9,286047001.2,N
1511934275.7,286046995.2,N
1511934295.6,286046994.0,N
1511934315.4,286046994.6,N
1511934335.2,286046995.8,N
1511934355.1,286046993.2,N
1511934356.0,286046993.2,N
1511934375.8,286046986.1,Y
1511934395.6,286046982.9,P
1511934415.5,286046982.4,N
1511934435.3,286046985.1,N
1511934455.1,286046979.7,N
1511934475.9,286046975.8,Y
1511934495.7,286046991.5,P
1511934515.5,286046987.2,P
1511934535.4,286046986.1,P
1511934555.2,286046990.0,Y
1511934575.0,286047000.0,P
1511934575.9,286047000.0,N
1511934595.8,286047007.2,N
1511934615.6,286047006.2,N
1511934635.4,286047007.4,N
1511934655.3,286047004.6,N
1511934675.1,286047008.8,N
1511934676.0,286047008.8,N
1511934695.8,286047005.1,N
1511934715.7,286047006.0,N
1511934735.5,286047008.7,N
1511934755.3,286047009.0,N
1511934775.2,286047006.7,N
1511934795.9,286047005.5,N
1511934815.7,286047004.2,N
1511934835.5,286047002.1,N
1511934855.4,286047003.7,N
1511934875.2,286047003.0,N
1511934895.0,286047004.6,N
1511934895.9,286047004.6,N
1511934915.8,286047004.8,N
1511934935.6,286047006.3,N
1511934955.4,286047004.5,N
1511934975.3,286047006.6,N
1511934995.1,286047009.4,N
1511934996.0,286047009.4,N
1511935015.8,286047008.4,N
1511935035.7,286047007.7,N
1511935055.5,286047007.3,N
1511935075.3,286047010.0,N
1511935095.2,286047010.7,Y
1511935115.9,286047005.2,P
1511935135.7,286047007.1,P
1511935155.6,286047006.8,P
1511935175.4,286047009.2,Y
1511935195.2,286047005.3,P
